EW4792 Weather Reports


Display with metric or nautical units.
time (UTC)temp
F
wind
direction
speed
MPH
gust
MPH
rain 1hr
in
rain 24hr
in
rain mn
in
humidity
%
barometer
mb
20260902112538 80 263 4.0 7.0 0.00 0.00 0.00 80 1016.4
20260902112115 80 251 4.0 7.0 0.00 0.00 0.00 80 1016.4
20260902111614 80 267 4.0 8.0 0.00 0.00 0.00 80 1016.3
20260902111111 80 249 4.0 8.0 0.00 0.00 0.00 80 1016.5
20260902110554 80 255 6.0 8.0 0.00 0.00 0.00 80 1016.4
20260902110154 80 266 5.0 7.0 0.00 0.00 0.00 80 1016.2
20260902105626 80 259 6.0 7.0 0.00 0.00 0.00 79 1016.2
20260902105126 80 255 3.0 7.0 0.00 0.00 0.00 79 1016.3
20260902104624 80 242 5.0 7.0 0.00 0.00 0.00 79 1016.3
20260902104107 80 236 5.0 7.0 0.00 0.00 0.00 80 1016.3
20260902103607 80 239 5.0 8.0 0.00 0.00 0.00 79 1016.3
20260902103111 80 242 6.0 8.0 0.00 0.00 0.00 79 1016.2
20260902102611 81 250 5.0 7.0 0.00 0.00 0.00 79 1016.2
20260902102054 80 253 4.0 7.0 0.00 0.00 0.00 78 1016.3
20260902101548 80 227 4.0 9.0 0.00 0.00 0.00 78 1016.2
20260902101102 81 257 3.0 7.0 0.00 0.00 0.00 78 1016.2
20260902100611 81 243 2.0 7.0 0.00 0.00 0.00 77 1016.3
20260902100109 81 234 4.0 8.0 0.00 0.00 0.00 78 1016.2
20260902095541 81 239 6.0 7.0 0.00 0.00 0.00 77 1016.2
20260902095046 81 242 5.0 7.0 0.00 0.00 0.00 77 1016.0
20260902094544 81 230 5.0 7.0 0.00 0.00 0.00 78 1016.2
20260902094048 81 244 5.0 7.0 0.00 0.00 0.00 77 1016.2
20260902093543 81 240 5.0 7.0 0.00 0.00 0.00 77 1016.2
20260902093048 81 232 5.0 7.0 0.00 0.00 0.00 76 1016.3
20260902092542 81 238 5.0 7.0 0.00 0.00 0.00 76 1016.2
20260902092053 81 221 5.0 7.0 0.00 0.00 0.00 76 1016.3
20260902091602 81 210 2.0 5.0 0.00 0.00 0.00 76 1016.5
20260902090539 81 201 3.0 7.0 0.00 0.00 0.00 76 1016.4
20260902090054 81 187 2.0 7.0 0.00 0.00 0.00 75 1016.4
20260902085552 81 193 4.0 6.0 0.00 0.00 0.00 76 1016.3
20260902085044 81 222 2.0 6.0 0.00 0.00 0.00 76 1016.2
20260902084542 81 201 2.0 6.0 0.00 0.00 0.00 76 1016.4
20260902084046 81 201 3.0 6.0 0.00 0.00 0.00 76 1016.4
20260902083550 81 220 3.0 8.0 0.00 0.00 0.00 75 1016.5
20260902083055 81 238 4.0 8.0 0.00 0.00 0.00 75 1016.4
20260902082555 82 244 4.0 7.0 0.00 0.00 0.00 75 1016.5
20260902082104 82 230 3.0 7.0 0.00 0.00 0.00 76 1016.5
20260902081607 82 215 3.0 7.0 0.00 0.00 0.00 75 1016.6
20260902081147 82 230 2.0 9.0 0.00 0.00 0.00 75 1016.6
20260902080639 82 234 6.0 9.0 0.00 0.00 0.00 75 1016.7
20260902080123 82 217 7.0 9.0 0.00 0.00 0.00 75 1016.6
20260902075617 82 216 7.0 9.0 0.00 0.00 0.00 75 1016.7
20260902075117 82 227 6.0 10.0 0.00 0.00 0.00 75 1016.6
20260902074615 82 207 7.0 10.0 0.00 0.00 0.00 75 1016.7
20260902074127 82 186 6.0 9.0 0.00 0.00 0.00 76 1016.7
20260902073619 82 196 8.0 9.0 0.00 0.00 0.00 75 1016.6
20260902073118 82 183 6.0 8.0 0.00 0.00 0.00 76 1016.6
20260902072632 82 140 4.0 6.0 0.00 0.00 0.00 76 1016.6
20260902072130 82 181 3.0 5.0 0.00 0.00 0.00 76 1016.7
20260902071628 82 125 3.0 7.0 0.00 0.00 0.00 76 1016.8
20260902071049 82 93 4.0 7.0 0.00 0.00 0.00 75 1016.6
20260902070545 82 108 4.0 6.0 0.00 0.00 0.00 76 1016.8
20260902070058 82 107 4.0 6.0 0.00 0.00 0.00 76 1016.6
20260902065548 81 104 5.0 7.0 0.00 0.00 0.00 76 1016.5
20260902065102 82 103 5.0 7.0 0.00 0.00 0.00 76 1016.6
20260902064538 82 107 4.0 7.0 0.00 0.00 0.00 75 1016.6
20260902064053 82 99 5.0 8.0 0.00 0.00 0.00 76 1016.5
20260902063549 82 101 6.0 8.0 0.00 0.00 0.00 75 1016.5
20260902063104 82 95 5.0 6.0 0.00 0.00 0.00 74 1016.5
20260902062539 82 95 5.0 6.0 0.00 0.00 0.00 74 1016.5
20260902062053 82 106 5.0 7.0 0.00 0.00 0.00 75 1016.5
20260902061549 82 105 3.0 7.0 0.00 0.00 0.00 74 1016.5
20260902061103 82 110 3.0 7.0 0.00 0.00 0.00 74 1016.6
20260902060538 82 122 5.0 8.0 0.00 0.00 0.00 74 1016.7
20260902060052 83 116 6.0 8.0 0.00 0.00 0.00 73 1016.8
20260902055549 83 106 5.0 6.0 0.00 0.00 0.00 73 1016.7
20260902055104 83 102 5.0 6.0 0.00 0.00 0.00 72 1016.7
20260902054539 83 99 5.0 6.0 0.00 0.00 0.00 71 1016.7
20260902054038 84 99 4.0 6.0 0.00 0.00 0.00 72 1016.6
20260902053549 84 122 4.0 6.0 0.00 0.00 0.00 72 1016.6
20260902053105 84 97 4.0 9.0 0.00 0.00 0.00 71 1016.6
20260902052543 84 123 5.0 9.0 0.00 0.00 0.00 72 1016.6
20260902052038 84 132 6.0 9.0 0.00 0.00 0.00 72 1016.7
20260902051556 84 120 3.0 6.0 0.00 0.00 0.00 71 1016.5
20260902051051 84 130 3.0 7.0 0.00 0.00 0.00 71 1016.6
20260902050547 84 112 4.0 7.0 0.00 0.00 0.00 71 1016.7
20260902050043 84 119 5.0 9.0 0.00 0.00 0.00 70 1016.8
20260902045557 85 104 6.0 9.0 0.00 0.00 0.00 70 1016.7
20260902044617 85 126 9.0 12.0 0.00 0.00 0.00 70 1016.7
20260902044115 86 143 9.0 13.0 0.00 0.00 0.00 70 1016.7
20260902043552 86 154 10.0 13.0 0.00 0.00 0.00 69 1016.6
20260902043050 86 141 10.0 13.0 0.00 0.00 0.00 69 1016.5
20260902042548 86 147 10.0 12.0 0.00 0.00 0.00 69 1016.4
20260902042053 86 149 9.0 11.0 0.00 0.00 0.00 69 1016.4
20260902041654 86 141 8.0 10.0 0.00 0.00 0.00 68 1016.4
20260902041109 86 145 8.0 10.0 0.00 0.00 0.00 67 1016.3
20260902040618 86 128 7.0 10.0 0.00 0.00 0.00 67 1016.3
20260902040130 87 123 8.0 13.0 0.00 0.00 0.00 67 1016.3
20260902035623 87 138 8.0 14.0 0.00 0.00 0.00 67 1016.2
20260902035121 87 138 11.0 14.0 0.00 0.00 0.00 68 1016.2
20260902034611 87 138 11.0 13.0 0.00 0.00 0.00 66 1016.2
20260902034109 87 135 9.0 15.0 0.00 0.00 0.00 67 1016.2
20260902033545 87 140 12.0 15.0 0.00 0.00 0.00 66 1016.2
20260902033102 87 128 10.0 13.0 0.00 0.00 0.00 65 1016.0
20260902032601 88 115 8.0 12.0 0.00 0.00 0.00 65 1016.0
20260902032106 88 120 7.0 11.0 0.00 0.00 0.00 66 1016.1
20260902031548 88 144 7.0 10.0 0.00 0.00 0.00 65 1015.8
20260902031104 88 104 6.0 8.0 0.00 0.00 0.00 64 1015.8
20260902030622 88 111 6.0 9.0 0.00 0.00 0.00 63 1015.6
20260902030112 88 110 6.0 9.0 0.00 0.00 0.00 63 1015.7
20260902025602 88 122 7.0 11.0 0.00 0.00 0.00 62 1015.7
20260902025107 89 131 9.0 11.0 0.00 0.00 0.00 62 1015.6
20260902024600 89 139 8.0 10.0 0.00 0.00 0.00 63 1015.3
20260902024039 89 143 7.0 8.0 0.00 0.00 0.00 61 1015.3
20260902023544 89 134 6.0 8.0 0.00 0.00 0.00 61 1015.1
20260902023134 89 136 7.0 9.0 0.00 0.00 0.00 63 1015.0
20260902022621 89 122 6.0 9.0 0.00 0.00 0.00 62 1015.0
20260902022053 89 129 7.0 10.0 0.00 0.00 0.00 60 1015.0
20260902021547 89 145 7.0 10.0 0.00 0.00 0.00 61 1015.0
20260902021105 90 135 7.0 10.0 0.00 0.00 0.00 60 1015.0
20260902020604 90 129 7.0 9.0 0.00 0.00 0.00 60 1014.8
20260902015630 90 113 7.0 11.0 0.00 0.00 0.00 59 1014.5
20260902015154 90 130 7.0 13.0 0.00 0.00 0.00 59 1014.5
20260902014631 90 128 9.0 13.0 0.00 0.00 0.00 58 1014.6
20260902014121 91 122 7.0 11.0 0.00 0.00 0.00 59 1014.5
20260902013541 91 120 4.0 7.0 0.00 0.00 0.00 58 1014.6
20260902013059 91 119 5.0 7.0 0.00 0.00 0.00 57 1014.4
20260902012551 91 107 5.0 8.0 0.00 0.00 0.00 56 1014.3
20260902012056 91 113 5.0 8.0 0.00 0.00 0.00 57 1014.4
20260902011557 92 133 5.0 7.0 0.00 0.00 0.00 56 1014.4
20260902011101 92 118 5.0 7.0 0.00 0.00 0.00 56 1014.3
20260902010541 92 108 4.0 7.0 0.00 0.00 0.00 57 1014.1
20260902010130 92 109 5.0 7.0 0.00 0.00 0.00 55 1014.2
20260902005608 92 114 5.0 8.0 0.00 0.00 0.00 56 1014.1
20260902004622 93 123 7.0 11.0 0.00 0.00 0.00 54 1014.2
20260902003550 93 103 7.0 10.0 0.00 0.00 0.00 53 1014.3
20260902003054 93 118 8.0 18.0 0.00 0.00 0.00 53 1014.3
20260902002549 93 119 10.0 18.0 0.00 0.00 0.00 53 1014.2
20260902002048 94 107 11.0 16.0 0.00 0.00 0.00 52 1014.2
20260902001648 94 126 11.0 18.0 0.00 0.00 0.00 52 1014.3
20260902001124 94 117 13.0 18.0 0.00 0.00 0.00 50 1014.2
20260902000622 95 127 8.0 10.0 0.00 0.00 0.00 47 1014.1
20260902000119 95 132 4.0 9.0 0.00 0.00 0.00 48 1014.2
20260901235615 95 99 6.0 10.0 0.00 0.00 0.00 48 1014.2
20260901235109 95 130 5.0 9.0 0.00 0.00 0.00 47 1014.2
20260901234541 94 119 8.0 9.0 0.00 0.00 0.00 48 1014.1
20260901234135 94 132 5.0 9.0 0.00 0.00 0.00 49 1014.3
20260901233617 94 145 7.0 9.0 0.00 0.00 0.00 53 1014.2
20260901233118 94 159 7.0 9.0 0.00 0.00 0.00 52 1014.1
20260901232613 94 156 6.0 9.0 0.00 0.00 0.00 51 1014.2
20260901232109 94 193 4.0 8.0 0.00 0.00 0.00 53 1014.1
20260901231547 94 195 5.0 8.0 0.00 0.00 0.00 50 1014.1
20260901231047 94 190 3.0 5.0 0.00 0.00 0.00 54 1014.2
20260901230604 94 191 2.0 5.0 0.00 0.00 0.00 53 1014.1
20260901225640 94 168 7.0 10.0 0.00 0.00 0.00 50 1014.1
20260901225117 94 124 5.0 7.0 0.00 0.00 0.00 50 1014.3
20260901224629 94 190 1.0 6.0 0.00 0.00 0.00 53 1014.3
20260901224120 94 193 3.0 6.0 0.00 0.00 0.00 53 1014.4
20260901223633 94 203 5.0 7.0 0.00 0.00 0.00 53 1014.3
20260901223130 94 203 4.0 7.0 0.00 0.00 0.00 53 1014.3
20260901222644 94 185 4.0 7.0 0.00 0.00 0.00 50 1014.3
20260901221634 94 182 4.0 12.0 0.00 0.00 0.00 52 1014.3
20260901221129 94 201 0.0 6.0 0.00 0.00 0.00 49 1014.3
20260901220604 94 198 2.0 9.0 0.00 0.00 0.00 50 1014.3
20260901220117 94 236 3.0 6.0 0.00 0.00 0.00 51 1014.4
20260901215611 94 221 4.0 8.0 0.00 0.00 0.00 52 1014.4
20260901215107 94 211 3.0 10.0 0.00 0.00 0.00 51 1014.4
20260901214622 95 164 5.0 10.0 0.00 0.00 0.00 51 1014.2
20260901213545 94 140 0.0 7.0 0.00 0.00 0.00 50 1014.4
20260901213100 94 137 3.0 7.0 0.00 0.00 0.00 49 1014.5
20260901212131 93 169 2.0 11.0 0.00 0.00 0.00 50 1014.6
20260901211631 93 142 4.0 11.0 0.00 0.00 0.00 50 1014.7
20260901211128 93 116 6.0 9.0 0.00 0.00 0.00 52 1014.6
20260901210141 94 219 5.0 10.0 0.00 0.00 0.00 52 1014.6
20260901205614 93 188 7.0 10.0 0.00 0.00 0.00 50 1014.8
20260901205113 94 220 4.0 6.0 0.00 0.00 0.00 51 1015.0
20260901204139 93 147 0.0 6.0 0.00 0.00 0.00 50 1015.2
20260901203612 93 172 4.0 9.0 0.00 0.00 0.00 51 1015.3
20260901203110 93 153 4.0 8.0 0.00 0.00 0.00 53 1015.3
20260901202605 92 73 0.0 5.0 0.00 0.00 0.00 52 1015.3
20260901202057 92 132 1.0 9.0 0.00 0.00 0.00 51 1015.5
20260901201552 92 132 6.0 9.0 0.00 0.00 0.00 51 1015.5
20260901201048 92 148 4.0 9.0 0.00 0.00 0.00 53 1015.7
20260901200544 92 128 6.0 9.0 0.00 0.00 0.00 51 1015.6
20260901200036 92 181 4.0 7.0 0.00 0.00 0.00 51 1015.6
20260901195548 92 165 1.0 6.0 0.00 0.00 0.00 52 1015.7
20260901195154 92 186 2.0 9.0 0.00 0.00 0.00 52 1015.9
20260901194630 91 198 5.0 9.0 0.00 0.00 0.00 53 1016.0
20260901194129 91 185 2.0 7.0 0.00 0.00 0.00 54 1016.1
20260901193540 91 190 2.0 5.0 0.00 0.00 0.00 54 1016.1
20260901193053 91 225 2.0 5.0 0.00 0.00 0.00 55 1016.2
20260901192547 91 156 0.0 2.0 0.00 0.00 0.00 56 1016.4
20260901192103 91 156 0.0 6.0 0.00 0.00 0.00 56 1016.3
20260901191616 91 152 3.0 10.0 0.00 0.00 0.00 57 1016.3
20260901191111 90 188 6.0 10.0 0.00 0.00 0.00 55 1016.4
20260901190550 91 164 6.0 10.0 0.00 0.00 0.00 57 1016.3
20260901190111 91 190 2.0 9.0 0.00 0.00 0.00 55 1016.4
20260901185606 90 122 4.0 9.0 0.00 0.00 0.00 55 1016.6
20260901185149 90 174 2.0 6.0 0.00 0.00 0.00 56 1016.6
20260901184602 90 122 2.0 6.0 0.00 0.00 0.00 56 1016.7
20260901184053 90 159 1.0 5.0 0.00 0.00 0.00 57 1016.8
20260901183553 90 134 2.0 10.0 0.00 0.00 0.00 56 1016.8
20260901183050 90 147 6.0 10.0 0.00 0.00 0.00 57 1016.8
20260901182602 89 99 1.0 10.0 0.00 0.00 0.00 56 1016.8
20260901182112 89 148 4.0 10.0 0.00 0.00 0.00 58 1017.1
20260901181133 89 137 4.0 9.0 0.00 0.00 0.00 60 1017.2
20260901180552 89 174 3.0 9.0 0.00 0.00 0.00 61 1017.2
20260901180108 89 212 3.0 10.0 0.00 0.00 0.00 62 1017.4
20260901175052 88 172 2.0 6.0 0.00 0.00 0.00 62 1017.4
20260901174635 88 128 3.0 6.0 0.00 0.00 0.00 62 1017.5
20260901174130 88 232 0.0 4.0 0.00 0.00 0.00 63 1017.6
20260901173626 88 244 1.0 4.0 0.00 0.00 0.00 64 1017.7
20260901173126 87 216 1.0 4.0 0.00 0.00 0.00 64 1017.6
20260901172619 87 215 1.0 5.0 0.00 0.00 0.00 65 1017.8
20260901172114 87 206 1.0 5.0 0.00 0.00 0.00 65 1017.9
20260901171608 87 174 1.0 2.0 0.00 0.00 0.00 66 1018.0
20260901171103 87 170 0.0 4.0 0.00 0.00 0.00 67 1018.0
20260901170126 86 280 0.0 1.0 0.00 0.00 0.00 69 1018.1
20260901165623 86 280 0.0 4.0 0.00 0.00 0.00 69 1018.2
20260901165116 86 280 1.0 4.0 0.00 0.00 0.00 69 1018.2
20260901164559 86 280 2.0 3.0 0.00 0.00 0.00 69 1018.2
20260901164055 86 290 0.0 1.0 0.00 0.00 0.00 70 1018.4
20260901163553 86 290 0.0 1.0 0.00 0.00 0.00 71 1018.3
20260901163051 86 290 0.0 1.0 0.00 0.00 0.00 72 1018.4
20260901162557 85 290 0.0 1.0 0.00 0.00 0.00 72 1018.5
20260901162051 85 290 0.0 1.0 0.00 0.00 0.00 72 1018.4
20260901161549 85 290 0.0 0.0 0.00 0.00 0.00 76 1018.5
20260901161053 84 290 0.0 0.0 0.00 0.00 0.00 75 1018.6
20260901160555 84 290 0.0 0.0 0.00 0.00 0.00 76 1018.5
20260901160047 84 290 0.0 1.0 0.00 0.00 0.00 75 1018.6
20260901155544 84 290 0.0 0.0 0.00 0.00 0.00 76 1018.6
20260901155046 84 290 0.0 0.0 0.00 0.00 0.00 77 1018.4
20260901154544 84 290 0.0 1.0 0.00 0.00 0.00 78 1018.4
20260901154040 84 290 0.0 1.0 0.00 0.00 0.00 80 1018.5
20260901153642 83 290 0.0 0.0 0.00 0.00 0.00 80 1018.4
20260901153116 83 290 0.0 0.0 0.00 0.00 0.00 80 1018.5
20260901152612 83 290 0.0 0.0 0.00 0.00 0.00 80 1018.5
20260901152108 82 290 0.0 0.0 0.00 0.00 0.00 81 1018.4
20260901151552 82 290 0.0 0.0 0.00 0.00 0.00 82 1018.6
20260901151109 81 290 0.0 0.0 0.00 0.00 0.00 82 1018.4
20260901150618 81 289 0.0 0.0 0.00 0.00 0.00 82 1018.5
20260901150129 81 289 0.0 0.0 0.00 0.00 0.00 82 1018.6
20260901145646 81 289 0.0 1.0 0.00 0.00 0.00 83 1018.6
20260901145135 81 289 0.0 1.0 0.00 0.00 0.00 83 1018.5
20260901144630 81 290 0.0 2.0 0.00 0.00 0.00 83 1018.6
20260901144134 80 290 1.0 2.0 0.00 0.00 0.00 83 1018.5
20260901143628 80 290 0.0 4.0 0.00 0.00 0.00 84 1018.5
20260901143130 80 290 1.0 5.0 0.00 0.00 0.00 84 1018.6
20260901142627 80 290 3.0 5.0 0.00 0.00 0.00 84 1018.4
20260901142118 80 276 2.0 5.0 0.00 0.00 0.00 84 1018.4
20260901141613 80 313 0.0 4.0 0.00 0.00 0.00 85 1018.6
20260901140634 80 314 1.0 4.0 0.00 0.00 0.00 85 1018.4
20260901140048 80 240 0.0 2.0 0.00 0.00 0.00 85 1018.5
20260901135606 80 240 0.0 2.0 0.00 0.00 0.00 85 1018.5
20260901135104 80 240 0.0 2.0 0.00 0.00 0.00 85 1018.3
20260901134616 80 240 0.0 2.0 0.00 0.00 0.00 85 1018.4
20260901134116 80 240 0.0 2.0 0.00 0.00 0.00 86 1018.4
20260901133615 80 240 1.0 2.0 0.00 0.00 0.00 86 1018.5
20260901133110 80 240 0.0 2.0 0.00 0.00 0.00 85 1018.4
20260901132545 80 240 0.0 1.0 0.00 0.00 0.00 85 1018.2
20260901132044 80 240 0.0 1.0 0.00 0.00 0.00 85 1018.2
20260901131654 80 240 0.0 0.0 0.00 0.00 0.00 86 1018.1
20260901131123 79 240 0.0 1.0 0.00 0.00 0.00 85 1018.1
20260901130132 79 240 0.0 2.0 0.00 0.00 0.00 85 1018.1
20260901125628 79 240 1.0 2.0 0.00 0.00 0.00 85 1018.0
20260901125123 79 240 0.0 4.0 0.00 0.00 0.00 86 1018.0
20260901124615 79 240 2.0 5.0 0.00 0.00 0.00 86 1017.9
20260901124128 79 240 3.0 5.0 0.00 0.00 0.00 86 1017.7
20260901123620 79 241 2.0 3.0 0.00 0.00 0.00 86 1017.8
20260901123131 79 241 1.0 4.0 0.00 0.00 0.00 86 1017.8
20260901122539 79 241 1.0 3.0 0.00 0.00 0.00 86 1017.8
20260901122051 79 241 0.0 2.0 0.00 0.00 0.00 86 1017.6
20260901121547 79 241 0.0 4.0 0.00 0.00 0.00 86 1017.5
20260901121054 79 241 1.0 5.0 0.00 0.00 0.00 86 1017.6
20260901120605 79 241 2.0 5.0 0.00 0.00 0.00 86 1017.6
20260901120117 79 241 1.0 3.0 0.00 0.00 0.00 86 1017.6
20260901115634 79 241 0.0 4.0 0.00 0.00 0.00 86 1017.7
20260901115044 79 241 2.0 6.0 0.00 0.00 0.00 86 1017.6
20260901114656 79 241 2.0 7.0 0.00 0.00 0.00 86 1017.5
20260901114111 79 265 5.0 7.0 0.00 0.00 0.00 86 1017.5
20260901113624 79 286 5.0 7.0 0.00 0.00 0.00 86 1017.7
20260901113120 79 274 4.0 6.0 0.00 0.00 0.00 86 1017.5